Location: LewisvilleTX
(33.0462°N, 96.9942°W)
Time: 14:32:01
(UTC+00:00)

MANDRAKE 2 BAKER - Pass Details

Date: 06 June 2022
Orbit: 516 x 531 km, 97.6° (Epoch: 03 July)

Event Time Altitude Azimuth Distance (km) Brightness Sun altitude
Exits shadow 08:06:13 27° 6° (N) 1,026 ? -29.4°
Drops below altitude 10° 08:08:06 10° 357° (N) 1,769 ? -29.3°
Sets 08:10:13 0° 353° (N) 2,658 ? -29.1°
